星链-33583 (STARLINK-33583)

导读

STARLINK-33583是美国SpaceX星链星座的卫星,于2025年4月7日发射升空。星链计划旨在构建全球卫星互联网通信网络,该卫星承担着为全球偏远地区、空中、海上等场景提供低时延宽带互联网接入服务的任务,依托低轨轨道布局,助力实现全球无缝网络覆盖,推动卫星互联网普及。

Basic Information
目录编号:
63503
目录名称:
STARLINK-33583
国际标识:
2025-071L
轨道中心:
EARTH
卫星名称:
星链-33583
卫星全名:
星链-33583 (STARLINK-33583)
卫星状态:
在轨 (已飞行515 天)
发射日期:
2025-04-07 UTC
国别 :
美国 (US)
星等 :
--
Orbit Information
数据来源 国际轨道数据
星历时间: 2026-09-04T00:30:53+0800
15小时前
查看轨道信息
半长轴: 6840.853km
偏心率: 0.0001047
轨道倾角: 53.160°
近地点辐角 89.201°
升交点赤经 26.629°
平近点角 270.911°
近地点: 461.999km
远地点: 463.433km
周期: 93.848分钟
每日圈数: 15.343958
Detailed Information
固有亮度:
5
最大亮度:
2.5
卫星平台:
Starlink V1.0
覆盖范围:
全球
运营商:
太空探索技术公司
运营商所在国:
美国
制造商(研发单位):
太空探索技术公司
制造商所在国:
美国
使用方式:
暂无
Satellite Introduction
Starlink 计划是 SpaceX 推出的全球卫星互联网项目,通过发射低轨道卫星,为全球尤其是偏远地区提供高速、低延迟的互联网服务。自 2019 年起,Starlink 已部署数千颗卫星,旨在缩小全球数字鸿沟,推动互联网普及。该项目还为军事、航空等行业提供通信支持,带来广泛经济效益。
2D Orbit Map
3D Orbit Map
Orbit Altitude Analysis Chart
Orbit Inclination Analysis Chart
Orbit Comprehensive Analysis Chart
View Comprehensive Chart
Conjunction Data List
Event ID Objects TCA Miss Dist (km) Collision Risk Probability Collision Risk Index (CRI) Action
CDM_260903-200705-766806-350322
2026-09-03T
20:07:51+0000
0.350 km
远距离
2.850654E-4 高风险 0.84
CDM_260904-010105-896906-350322
2026-09-04T
01:01:43+0000
0.588 km
远距离
1.214255E-4 高风险 0.77
CDM_260904-220705-896906-350321
2026-09-04T
22:07:54+0000
0.637 km
远距离
9.753509E-5 中风险 0.75
CDM_260904-044305-766806-350322
2026-09-04T
04:43:42+0000
0.598 km
远距离
8.323122E-5 中风险 0.73
CDM_260904-073806-350306-952321
2026-09-04T
07:38:21+0000
0.670 km
远距离
6.312968E-5 中风险 0.71
CDM_260904-181405-898006-350322
2026-09-04T
18:14:15+0000
0.807 km
远距离
4.823791E-5 中风险 0.69
CDM_260904-192106-350306-952321
2026-09-04T
19:21:46+0000
0.984 km
远距离
1.816379E-5 中风险 0.6
CDM_260904-061505-927206-350322
2026-09-04T
06:15:03+0000
1.193 km
极远距离
6.6222E-6 低风险 0.51
CDM_260905-141406-350306-663221
2026-09-05T
14:14:08+0000
0.896 km
远距离
4.358055E-6 低风险 0.48
CDM_260904-023505-896906-350321
2026-09-04T
02:35:31+0000
1.677 km
极远距离
4.096446E-6 低风险 0.47